{"data":{"norad_id":55495,"epoch":"2026-05-24T23:48:39.996576Z","epoch_age_seconds":72757,"freshness":"FRESH","line1":"1 55495U 23015AY  26144.99212959  .00001399  00000+0  60366-4 0  9998","line2":"2 55495  43.0030 250.5835 0001291 252.9864 107.0846 15.27577367182475","mean_motion":15.27577367,"eccentricity":0.0001291,"inclination_deg":43.003,"raan_deg":250.5835,"arg_perigee_deg":252.9864,"mean_anomaly_deg":107.0846,"bstar":6.0366e-5,"rev_number":18247,"period_min":94.266911195994,"perigee_km":482.17120005735,"apogee_km":483.94276034304,"semimajor_km":6861.1939802002,"source":"CELESTRAK","updated_at":"2026-05-25T13:38:17.831480Z"}}